Flag for Germany Weather past 2 weeks in Friesoythe, Lower Saxony, Germany

Now
45 °F

Passing clouds.


Feels Like: 42 °F
Forecast: 52 / 59 °F
Wind: 5 mph from West

Location: Meppen-Mil

Current Time: Sep 23, 2014 at 8:47:32 AM

Latest Report: Sep 23, 2014 at 7:20 AM


Visibility: N/A

Pressure: 30.12 "Hg

Humidity: 93%

Dew point: 43 °F

Location of FriesoytheLocation

Historic Weather in Friesoythe — Graph

°F

Friesoythe temperature yesterday

Maximum temperature yesterday: 63 °F (at 3:20 PM)
Minimum temperature yesterday: 48 °F (at 9:20 PM)
Average temperature yesterday: 55 °F

Past Weeks' High & Low Weather Summary

 TemperatureHumidityPressure
High79 °F (Sep 18, 4:20 PM)100% (Sep 8, 7:20 AM)30.27 "Hg (Sep 8, 7:20 AM)
Low45 °F (Sep 23, 3:20 AM)45% (Sep 18, 4:20 PM)29.83 "Hg (Sep 18, 4:20 PM)
Average60 °F80%30.05 "Hg
* Reported Sep 8 7:20 AM — Sep 23 7:20 AM, Friesoythe, Weather by CustomWeather, © 2014

Note: Actual official high and low records may vary slightly from our data, if they occured in-between our weather recording intervals... More about our weather records

Advertising

Friesoythe weather history for previous 24 hours

 ConditionsComfort  
Time TempWeatherWind HumidityBarometerVisibility
7:20 AM
Sep 23
45 °FPassing clouds.5 mph93%30.12 "HgN/A
6:20 AM45 °FQuite cool.5 mph93%30.12 "Hg5 mi
5:20 AM46 °FCool.5 mph93%30.12 "Hg4 mi
4:20 AM45 °FQuite cool.3 mph93%30.12 "Hg3 mi
3:20 AM45 °FQuite cool.5 mph93%30.12 "Hg4 mi
2:20 AM46 °FCool.5 mph87%30.15 "Hg6 mi
1:20 AM46 °FCool.6 mph93%30.15 "Hg6 mi
12:20 AM48 °FCool.5 mph87%30.15 "Hg6 mi
11:20 PM
Sep 22
48 °FCool.5 mph87%30.15 "Hg6 mi
10:20 PM50 °FCool.3 mph82%30.12 "Hg6 mi
9:20 PM48 °FCool.5 mph87%30.12 "Hg6 mi
8:20 PM52 °FCool.5 mph77%30.12 "Hg6 mi
7:20 PM55 °FCool.5 mph63%30.09 "HgN/A
6:20 PM59 °FRefreshingly cool.9 mph51%30.09 "HgN/A
5:20 PM61 °FRefreshingly cool.9 mph48%30.09 "Hg6 mi
4:20 PM61 °FRefreshingly cool.7 mph52%30.07 "Hg5 mi
3:20 PM63 °FMild.12 mph45%30.07 "Hg5 mi
2:20 PM59 °FScattered clouds.9 mph55%30.04 "HgN/A
1:20 PM59 °FPassing clouds.10 mph59%30.04 "HgN/A
12:20 PM55 °FPassing clouds.9 mph82%30.04 "HgN/A
11:20 AM50 °FRain. Broken clouds.7 mph88%30.07 "Hg4 mi
10:20 AM52 °FSprinkles. Broken clouds.12 mph82%30.04 "Hg5 mi
9:20 AM55 °FPassing clouds.9 mph72%30.01 "HgN/A
8:20 AM54 °FScattered showers. Passing clouds.7 mph72%30.01 "HgN/A
Weather by CustomWeather, © 2014

See weather overviewHow to use our weather pages